Tracking 29892 objects as of 21-Nov-2024
HD Live streaming from Space Station
objects crossing your sky now

STARLINK-4419

Track STARLINK-4419 now!
10-day predictions
STARLINK-4419 is classified as:


NORAD ID: 53211
Int'l Code: 2022-084Y
Perigee: 568.8 km
Apogee: 571.5 km
Inclination: 97.7 °
Period: 95.9 minutes
Semi major axis: 6941 km
RCS: Unknown
Launch date: July 22, 2022
Source: United States (US)
Launch site: AIR FORCE WESTERN TEST RANGE (AFWTR)
Your satellite tracking list
Your tracking list is empty




NASA's NSSDC Master Catalog

Two Line Element Set (TLE):
1 53211U 22084Y   24326.11437823  .00000028  00000-0  67394-5 0  9998
2 53211  97.6568  24.7082 0001964  90.8722 269.2727 15.01257419128647
Source of the keplerian elements: AFSPC